Location: JKWMA (FRAC)
(33.1803°N, 84.5512°W)
Time: 13:19:06
(UTC-04:00)

Hubble Space Telescope - Pass Details

Date: 28 March 2019
Orbit: 536 x 540 km, 28.5° (Epoch: 17 October)

Event Time Altitude Azimuth Distance (km) Brightness Sun altitude
Rises 21:54:07 0° 263° (W) 2,673 5.3 -24.9°
Reaches altitude 10° 21:56:27 10° 256° (WSW) 1,783 4.1 -25.4°
Enters shadow 21:59:00 30° 230° (SW) 964 2.2 -25.8°
